AO-07 1 07530U 74089B 19353.42165427 -.00000020 00000-0 15890-3 0 9994 2 07530 101.7734 319.3765 0012302 354.0545 123.0812 12.53641286 63541 UO-11 1 14781U 84021B 19352.80697739 .00000057 00000-0 13065-4 0 9996 2 14781 97.5990 8.7391 0009973 80.3567 279.8774 14.83128510925909 LO-19 1 20442U 90005G 19353.17395922 -.00000003 00000-0 15157-4 0 9992 2 20442 98.6706 295.0349 0011303 333.9504 26.1110 14.32940702562654 HUBBLE 1 20580U 90037B 19353.45436076 .00000411 00000-0 14041-4 0 9990 2 20580 28.4701 76.7390 0002543 307.2808 168.9628 15.09313871428678 MET-2/21 1 22782U 93055A 19353.48274184 .00000013 00000-0 -20074-5 0 9995 2 22782 82.5482 17.2133 0022850 25.9710 83.0426 13.83822130328287 AO-27 1 22825U 93061C 19353.02169520 -.00000011 00000-0 13862-4 0 9991 2 22825 98.9169 345.9707 0008383 178.3931 181.7278 14.30073664368153 IO-26 1 22826U 93061D 19353.82000831 .00000005 00000-0 19872-4 0 9998 2 22826 98.9109 346.7568 0009148 165.1797 194.9654 14.30408291368473 FO-29 1 24278U 96046B 19353.37587111 -.00000041 00000-0 -80192-5 0 9994 2 24278 98.5636 122.1213 0351133 123.8134 239.6961 13.53094953152648 NOAA-15 1 25338U 98030A 19353.54078648 .00000013 00000-0 24218-4 0 9999 2 25338 98.7338 14.3571 0011374 71.0150 289.2261 14.25943963123453 GO-32 1 25397U 98043D 19353.12242123 -.00000001 00000-0 18705-4 0 9995 2 25397 98.7093 291.1937 0000857 168.2809 191.8389 14.23676267113974 ISS 1 25544U 98067A 19353.94978815 .00000277 00000-0 12861-4 0 9990 2 25544 51.6437 160.3823 0007765 53.1126 83.0837 15.50122527204076 NO-44 1 26931U 01043C 19353.16445827 -.00000040 00000-0 16471-4 0 9995 2 26931 67.0513 250.2255 0007058 263.9994 96.0302 14.30562002951219 SO-50 1 27607U 02058C 19353.01054897 -.00000053 00000-0 13398-4 0 9999 2 27607 64.5539 209.1166 0069298 220.3055 139.2900 14.75595900914083 CO-55 1 27844U 03031E 19352.85367546 .00000039 00000-0 37306-4 0 9991 2 27844 98.6835 358.3243 0009228 216.3969 143.6582 14.22211389854325 CO-57 1 27848U 03031J 19353.25004393 .00000026 00000-0 31703-4 0 9999 2 27848 98.6909 359.2497 0008964 227.8808 132.1608 14.21802093854225 RS-22 1 27939U 03042A 19353.75459944 .00000081 00000-0 23195-4 0 9990 2 27939 98.0656 126.2810 0012457 200.1061 159.9644 14.66824969867526 NOAA-18 1 28654U 05018A 19353.60246680 .00000052 00000-0 52926-4 0 9997 2 28654 99.0721 43.1036 0014483 24.1434 336.0413 14.12475409751482 CO-58 1 28895U 05043F 19353.33192717 .00000109 00000-0 29844-4 0 9999 2 28895 97.9838 130.0685 0017838 129.7633 230.5144 14.63721694754344 Falconsat-3 1 30776U 07006E 19353.37364424 .00002327 00000-0 64294-4 0 9993 2 30776 35.4359 357.7969 0002864 318.9445 41.1066 15.36942706708954 CO-65 1 32785U 08021C 19353.22408811 .00000223 00000-0 29614-4 0 9996 2 32785 97.5595 344.3816 0013533 20.7116 339.4647 14.88390900630982 AAUSAT2 1 32788U 08021F 19352.99900834 .00000245 00000-0 27395-4 0 9992 2 32788 97.4926 0.5869 0010543 310.1047 49.9250 14.94892185632308 DO-64 1 32789U 08021G 19353.39488741 .00001128 00000-0 78624-4 0 9998 2 32789 97.4430 37.3237 0011489 209.9756 150.0816 15.07333341634637 CO-66 1 32791U 08021J 19353.06621677 .00000350 00000-0 40782-4 0 9992 2 32791 97.5327 350.3453 0013094 353.8133 6.2922 14.90934597631432 RS-30 1 32953U 08025A 19353.63069051 .00000037 00000-0 19437-3 0 9995 2 32953 82.5050 30.3704 0020366 89.2655 271.0758 12.43093046525164 PRISM 1 33493U 09002B 19352.90647764 .00000400 00000-0 40436-4 0 9991 2 33493 98.1310 280.8649 0013897 300.8319 59.1533 14.96848862592553 NOAA-19 1 33591U 09005A 19353.59437518 .00000015 00000-0 33476-4 0 9991 2 33591 99.1914 349.2758 0013341 220.3309 139.6873 14.12388033559868 TISAT-1 1 36799U 10035E 19353.00732619 .00000397 00000-0 46032-4 0 9990 2 36799 98.1750 151.5217 0011875 199.4862 160.5903 14.91228712512086 JUGNU 1 37839U 11058B 19353.26299367 .00000304 00000-0 20001-4 0 9994 2 37839 19.9620 301.5696 0018969 190.1737 318.6941 14.12667099423242 SRMSAT 1 37841U 11058D 19353.43558225 .00000312 00000-0 26333-4 0 9990 2 37841 19.9735 1.0989 0012050 55.7996 99.4200 14.10645969422675 AO-71 1 37854U 11061E 19353.25220350 .00000927 00000-0 54833-4 0 9991 2 37854 101.7131 345.9659 0159450 240.4695 118.0539 15.06874181444637 HRBE 1 37855U 11061F 19353.01327417 .00000839 00000-0 49705-4 0 9992 2 37855 101.7258 342.8425 0172113 253.2563 104.9702 15.05886109444360 ALMASAT-1 1 38078U 12006B 19353.80802965 .00056213 51801-5 20134-3 0 9994 2 38078 69.4222 94.2689 0111227 331.3632 168.9175 15.79593035426383 HORYU-2 1 38340U 12025D 19353.11762171 .00000130 00000-0 26960-4 0 9996 2 38340 98.3075 36.9981 0010305 257.9026 102.1028 14.75788613408217 RS-40 1 38735U 12041C 19353.12600790 .00000001 00000-0 -65421-4 0 9994 2 38735 82.4752 113.7310 0016958 193.8791 166.1829 12.42579946335338 BEESAT-3 1 39135U 13015F 19352.93792328 .00000816 00000-0 49344-4 0 9997 2 39135 64.8647 167.4834 0042998 276.0544 83.5684 15.17795151368059 BEESAT-2 1 39136U 13015G 19352.78133358 .00000855 00000-0 52378-4 0 9997 2 39136 64.8688 172.3590 0030748 282.3754 77.3931 15.17217929367947 ZACUBE-1 1 39417U 13066B 19353.45902685 .00000184 00000-0 29374-4 0 9992 2 39417 97.5611 356.6201 0059633 150.2114 210.2516 14.81193988328246 TRITON-1 1 39427U 13066M 19353.16470725 .00000153 00000-0 32743-4 0 9996 2 39427 97.7009 319.4481 0112529 298.5304 60.4610 14.67920721325253 GOMX-1 1 39430U 13066Q 19353.79612950 .00000221 00000-0 48718-4 0 9992 2 39430 97.7713 298.4475 0151967 34.2114 326.8775 14.59325940323455 LO-74 1 39440U 13066AA 19353.48145164 .00000150 00000-0 27895-4 0 9991 2 39440 97.6145 341.1865 0079472 207.0561 152.6497 14.75932009327086 AO-73 1 39444U 13066AE 19353.01968047 .00000244 00000-0 36107-4 0 9997 2 39444 97.5574 358.3155 0058881 144.7814 215.7313 14.82029121327084 SPROUT 1 39770U 14029E 19353.75297545 .00000683 00000-0 81291-4 0 9999 2 39770 97.8906 95.9507 0008618 194.5343 165.5624 14.87545875302192 DUCHIFAT-1 1 40021U 14033M 19353.06209729 .00000351 00000-0 41552-4 0 9994 2 40021 97.9327 278.3181 0013156 159.5848 200.5898 14.90765236298860 NANOSATCBR1 1 40024U 14033Q 19353.79103191 .00000325 00000-0 39598-4 0 9991 2 40024 97.9202 275.9800 0012459 160.8903 199.2784 14.89958192298858 EO-79 1 40025U 14033R 19353.02471088 .00000189 00000-0 26088-4 0 9999 2 40025 97.9102 272.4204 0012514 169.9789 190.1680 14.89039414298607 DTUSAT-2 1 40030U 14033W 19353.34026654 .00000217 00000-0 29331-4 0 9991 2 40030 97.9002 270.5707 0012092 164.6506 195.5079 14.88624485298573 EO-80 1 40032U 14033Y 19353.01662200 .00000204 00000-0 27955-4 0 9996 2 40032 97.9009 270.2492 0012011 166.3022 193.8523 14.88569975298514 ANTELSAT 1 40034U 14033AA 19353.11065495 .00000158 00000-0 30831-4 0 9997 2 40034 97.7342 212.2386 0057647 223.6211 136.0434 14.74179159295695 VELOX-1 1 40057U 14034E 19353.78840969 .00000221 00000-0 38508-4 0 9993 2 40057 98.2572 121.1073 0010967 10.6345 349.5097 14.77767741294955 DAURIA DX 1 1 40071U 14037C 19353.69388502 .00000071 00000-0 16606-4 0 9990 2 40071 98.4445 157.2308 0008590 4.2081 355.9203 14.81317904294494 UKUBE-1 1 40074U 14037F 19353.75831691 .00000327 00000-0 46380-4 0 9998 2 40074 98.4494 166.3799 0004645 358.8041 1.3124 14.84158373294958 HODOYOSHI-1 1 40299U 14070B 19353.75960814 .00008044 00000-0 33755-3 0 9999 2 40299 97.3365 69.5733 0015051 113.7845 1.0733 15.23633668284295 CHUBUSAT-1 1 40300U 14070C 19353.80014273 .00000587 00000-0 28320-4 0 9994 2 40300 97.3106 63.1651 0021095 126.1550 12.3467 15.22293108284026 QSAT-EOS 1 40301U 14070D 19353.76283800 .00001330 00000-0 53342-4 0 9993 2 40301 97.3128 67.2157 0027182 107.1856 45.6364 15.26417430284360 FIREBIRD FU3 1 40377U 15003B 19353.33158567 .00001463 00000-0 60653-4 0 9997 2 40377 99.1166 11.3390 0125221 198.0781 161.5977 15.19413188269801 FIREBIRD FU4 1 40378U 15003C 19353.64686897 .00001578 00000-0 64960-4 0 9996 2 40378 99.1168 11.8065 0125428 196.9009 162.8025 15.19427680269852 GRIFEX 1 40379U 15003D 19353.78466446 .00001125 00000-0 51670-4 0 9990 2 40379 99.1210 4.9202 0133477 218.1514 141.0209 15.15942865269472 NO-84 1 40654U 15025D 19353.35549306 .00005537 00000 0 74639-4 0 8045 2 40654 54.9873 53.1453 0131058 79.4650 282.1157 15.50274926140908 DEORBITSAIL 1 40719U 15032E 19352.93431644 .00000347 00000-0 56486-4 0 9993 2 40719 97.8888 240.8228 0017685 74.9930 285.3236 14.76868554239306 NUDT-PHONESAT 1 40900U 15049B 19353.86291381 .00001695 00000-0 74148-4 0 9990 2 40900 97.4353 1.4372 0011012 258.1105 185.6276 15.23407307235692 XW-2A 1 40903U 15049E 19353.74604567 .00001518 00000-0 37015-4 0 9990 2 40903 97.3148 37.3603 0012886 191.5690 307.0513 15.42434041238615 XW-2C 1 40906U 15049H 19353.76741898 .00000522 00000-0 30711-4 0 9994 2 40906 97.4723 352.8651 0013233 283.2862 69.1247 15.15864472234872 XW-2D 1 40907U 15049J 19353.73872228 .00000655 00000-0 37441-4 0 9998 2 40907 97.4703 352.5224 0012539 280.1620 166.9458 15.16071153234899 LILACSAT-2 1 40908U 15049K 19353.74363971 .00000309 00000-0 20646-4 0 9995 2 40908 97.4847 351.1306 0014447 290.0803 156.3537 15.13915901234658 XW-2E 1 40909U 15049L 19353.76134398 .00000684 00000-0 36839-4 0 9994 2 40909 97.4620 355.7044 0011918 272.4082 173.7046 15.18087661235118 XW-2F 1 40910U 15049M 19353.78567888 .00000850 00000-0 45605-4 0 9998 2 40910 97.4652 354.8599 0013109 270.8111 175.9886 15.17600937234930 XW-2B 1 40911U 15049N 19353.71401771 .00000485 00000-0 28693-4 0 9992 2 40911 97.4721 353.1786 0012555 281.4614 165.9014 15.15998717234787 DCBB 1 40912U 15049P 19353.73253569 .00000967 00000-0 48111-4 0 9997 2 40912 97.4489 358.7348 0013258 248.4963 198.6544 15.19951034235265 TW-1C 1 40926U 15051B 19353.84962159 .00011687 00000-0 14703-3 0 9999 2 40926 97.1123 39.9923 0008523 54.5381 32.3367 15.59770237238828 TW-1A 1 40928U 15051D 19353.89134552 .00002203 00000-0 54057-4 0 9995 2 40928 97.1279 21.0338 0012372 118.8380 4.6184 15.41683290237544 IO-86 1 40931U 15052B 19352.99822069 .00000535 00000-0 -14603-4 0 9997 2 40931 5.9937 189.3915 0013188 231.8732 128.1161 14.76621044228394 LQSat 1 40958U 15057A 19353.16686223 .00000006 00000-0 85464-5 0 9997 2 40958 97.8787 57.2010 0018446 16.8560 343.3257 14.73100681225814 AO-85 1 40967U 15058D 19353.34393203 -.00000039 00000 0 14838-4 0 9049 2 40967 64.7766 320.7066 0178055 141.2901 220.1133 14.76042939134849 ATHENOXAT-1 1 41168U 15077C 19353.54395164 .00001731 00000-0 55601-4 0 9991 2 41168 14.9889 308.3769 0011536 130.7666 229.3657 15.13988118221882 ChubuSat-2 1 41338U 16012B 19353.46546460 .00000283 00000-0 15236-4 0 9999 2 41338 31.0042 56.8083 0013689 123.4831 236.7114 15.00221287210533 ChubuSat-3 1 41339U 16012C 19353.87943862 .00000256 00000-0 13110-4 0 9991 2 41339 31.0122 52.0348 0013376 134.3974 225.7760 15.00391529210595 Horyu-4 1 41340U 16012D 19353.53894385 .00000435 00000-0 26202-4 0 9996 2 41340 31.0061 43.8061 0013853 153.0586 207.0771 15.01379167210664 OUFTI-1 1 41458U 16025C 19353.23273424 .00001616 00000-0 84469-4 0 9993 2 41458 98.0998 89.4320 0166379 99.7731 262.2328 15.06319209200194 e-st@r-II 1 41459U 16025D 19353.82624116 .00001432 00000-0 75878-4 0 9997 2 41459 98.0992 89.6040 0167621 99.5118 262.5124 15.05922418200253 AAUSAT4 1 41460U 16025E 19353.76142477 .00001681 00000-0 86237-4 0 9994 2 41460 98.0964 91.2758 0157165 90.4058 271.5188 15.08006525200406 LO-87 1 41557U 16033B 19353.80908042 .00001038 00000-0 41118-4 0 9998 2 41557 97.4123 80.2193 0013929 14.1439 346.0188 15.27607531198194 NuSat2 1 41558U 16033C 19353.80951573 .00001213 00000-0 44956-4 0 9994 2 41558 97.4160 81.8764 0012944 13.6566 346.5022 15.29541606198271 Lapan A3 1 41603U 16040E 19353.75077920 .00000195 00000-0 12220-4 0 9999 2 41603 97.3367 47.6661 0014984 111.9301 29.0711 15.19778009193698 Swayam 1 41607U 16040J 19353.70300010 .00001367 00000-0 59616-4 0 9999 2 41607 97.3438 52.1290 0014940 103.0028 257.2879 15.23747317193895 Pratham 1 41783U 16059A 19353.44000922 .00000046 00000-0 18041-4 0 9994 2 41783 98.0445 48.7291 0033994 164.0450 196.1831 14.63027192172413 AlSat 1N 1 41789U 16059G 19353.81825085 .00000075 00000-0 23189-4 0 9997 2 41789 98.0473 51.5028 0029071 151.1475 209.1332 14.64284340172596 ScatSat 1 41790U 16059H 19353.85251627 .00000414 00000-0 11590-3 0 9997 2 41790 98.1869 34.2705 0006903 110.5815 249.6698 14.50903714171034 TY-1 1 41844U 16066D 19353.77387774 .00000684 00000-0 30657-4 0 9994 2 41844 97.4048 358.9962 0013329 259.5071 273.9164 15.24551972172737 Pegasus-1 1 41846U 16066F 19352.85717382 .00000269 00000-0 50431-4 0 9997 2 41846 098.6890 035.7638 0368028 053.8620 309.6039 14.37671080162879 CAS-2T 1 41847U 16066G 19353.72051724 .00000045 00000-0 16693-4 0 9990 2 41847 98.6824 37.1525 0366597 47.4116 315.7389 14.38028282163447 EO-88 1 42017U 17008BX 19353.39961327 .00001337 00000-0 54821-4 0 9999 2 42017 97.3837 58.4326 0004888 231.9307 128.1491 15.25987609157937 nSIGHT1 1 42726U 98067MF 19353.72337247 .00060658 00000-0 29451-3 0 9996 2 42726 51.6320 81.5696 0001876 189.5864 170.5103 15.81853321146834 CAS-4B 1 42759U 17034B 19353.73653059 .00000068 00000-0 17680-4 0 9991 2 42759 43.0206 299.8782 0012543 327.7633 103.6971 15.09704914138655 CAS-4A 1 42761U 17034D 19353.75707233 .00000081 00000-0 18468-4 0 9990 2 42761 43.0201 299.1818 0012926 328.7802 106.5427 15.09782808138656 UCLSat 1 42765U 17036A 19353.38302197 .00001057 00000-0 47702-4 0 9992 2 42765 97.3282 47.2525 0009992 309.0703 50.9645 15.23113015138422 NIUSat 1 42766U 17036B 19353.15689899 .00000818 00000-0 39423-4 0 9990 2 42766 97.3277 44.9887 0014062 299.7852 60.1985 15.21400543138126 LituanicaSAT 2 1 42768U 17036D 19353.40865033 .00001727 00000-0 75394-4 0 9993 2 42768 97.3326 47.0172 0013353 296.3842 63.6024 15.23394430138275 Aalto 1 1 42775U 17036L 19353.15844763 .00000659 00000-0 32225-4 0 9999 2 42775 97.3261 45.3382 0012413 299.8663 60.1339 15.21578806138102 URSA MAIOR 1 42776U 17036M 19353.43086261 .00000718 00000-0 34670-4 0 9994 2 42776 97.3272 45.8148 0012216 298.6555 61.3453 15.21733986138155 Max Valier Sat 1 42778U 17036P 19353.46613037 .00000795 00000-0 37478-4 0 9990 2 42778 97.3318 46.8645 0010801 302.7238 57.2957 15.22307138138198 Pegasus 1 42784U 17036V 19353.11020552 .00000987 00000-0 45091-4 0 9996 2 42784 97.3286 46.7447 0010592 310.6892 49.3424 15.22834553138174 NUDATSat 1 42787U 17036Y 19353.11490638 .00001366 00000-0 59310-4 0 9996 2 42787 97.3320 47.7569 0011283 311.5417 48.4852 15.23964408138071 SUCHAI 1 1 42788U 17036Z 19353.39255660 .00001174 00000-0 52353-4 0 9998 2 42788 97.3293 47.4528 0010107 308.3341 51.6987 15.23312726138319 SKCUBE 1 42789U 17036AA 19352.89620848 .00001091 00000-0 49061-4 0 9997 2 42789 097.3288 046.8710 0010014 310.6667 049.3699 15.23184981138150 VZLUSAT 1 1 42790U 17036AB 19352.83991461 .00001467 00000-0 63493-4 0 9997 2 42790 097.3308 047.4864 0009528 309.2644 050.7747 15.23950924138180 VENTA 1 1 42791U 17036AC 19352.86929748 .00001038 00000-0 46800-4 0 9997 2 42791 097.3286 046.8941 0009692 311.5067 048.5338 15.23187107138144 Robusta 1B 1 42792U 17036AD 19353.72584119 .00001130 00000-0 50438-4 0 9998 2 42792 97.3289 47.8782 0009570 308.1451 51.8923 15.23365760138304 D-SAT 1 42794U 17036AF 19353.07007838 .00000217 00000-0 24455-4 0 9991 2 42794 97.5171 29.4755 0124985 250.0279 108.7444 14.91187526135667 TechnoSat 1 42829U 17042E 19353.76348726 .00000248 00000-0 30363-4 0 9996 2 42829 97.5422 238.7422 0014566 161.3233 198.8524 14.91036078132366 QIKCOM-1 1 42983U 98067NF 19353.75452703 .00004299 00000-0 58199-4 0 9990 2 42983 51.6383 135.3882 0004407 98.0729 262.0764 15.60096680122063 AO-91 1 43017U 17073E 19353.32551738 .00000549 00000-0 48905-4 0 9996 2 43017 97.7257 267.5162 0256223 280.4941 76.7497 14.78748836112393 EcAMSat 1 43019U 98067NG 19353.77665535 .00009114 00000-0 10237-3 0 9993 2 43019 51.6396 126.5978 0004476 84.2920 275.8585 15.63445265204505 PICSAT 1 43132U 18004X 19353.18456681 .00001115 00000-0 49010-4 0 9992 2 43132 97.4697 60.4786 0008894 339.7628 20.3255 15.23972516107449 AO-92 1 43137U 18004AC 19353.71922439 .00000919 00000-0 41181-4 0 9997 2 43137 97.4684 60.9296 0008490 340.4894 19.6017 15.23777255107515 TianYi 2 1 43155U 18008A 19353.76014168 .00000678 00000-0 43818-4 0 9998 2 43155 97.4691 62.2708 0019016 53.6693 97.7656 15.11380732105625 Zhou Enlai 1 43156U 18008B 19353.79579484 .00000816 00000-0 52657-4 0 9994 2 43156 97.4742 62.1743 0016075 53.5286 71.5216 15.10900566105590 TianYi 6 1 43158U 18008D 19353.76405668 .00000412 00000-0 28837-4 0 9990 2 43158 97.4703 61.4210 0015014 53.0396 96.2523 15.10458553105543 S-Net G 1 43186U 18014G 19352.87800209 .00000235 00000-0 25624-4 0 9993 2 43186 097.7017 258.5595 0012329 110.5290 249.7256 14.96721765102533 S-Net H 1 43187U 18014H 19352.87781791 .00000234 00000-0 25499-4 0 9997 2 43187 097.7015 258.5429 0012333 110.4824 249.7722 14.96721771102530 S-Net J 1 43188U 18014J 19352.87765359 .00000222 00000-0 24495-4 0 9992 2 43188 097.7018 258.5658 0012316 110.5763 249.6781 14.96721455102535 S-Net K 1 43189U 18014K 19352.87801534 .00000222 00000-0 24491-4 0 9995 2 43189 097.7015 258.5395 0012323 110.4885 249.7661 14.96721046101086 FMN 1 1 43192U 18015A 19353.72300889 .00001735 00000-0 72449-4 0 9998 2 43192 97.4215 119.4845 0016357 11.8866 95.3347 15.24901809104356 Shaonian Xing 1 43199U 18015H 19353.74672262 .00001170 00000-0 49266-4 0 9998 2 43199 97.4003 118.2299 0017460 21.9552 87.6888 15.25250497104410 1KUNS-PF 1 43466U 98067NP 19353.76282551 .00053141 00000-0 35007-3 0 9992 2 43466 51.6331 115.0316 0000751 242.5814 117.5109 15.75107393 91836 UBAKUSAT 1 43467U 98067NQ 19353.84607220 .00022395 00000-0 20619-3 0 9996 2 43467 51.6347 125.3988 0001428 63.0207 297.0935 15.67563001 91718 Irazu 1 43468U 98067NR 19353.62315678 .00113246 00000-0 48303-3 0 9992 2 43468 51.6339 105.7373 0002239 299.1515 60.9264 15.84361618191931 EnduroSat One 1 43551U 98067NZ 19353.09028842 .00026903 00000-0 23217-3 0 9990 2 43551 51.6346 130.8485 0004680 130.3750 229.7656 15.69028748 81805 EQUISat 1 43552U 98067PA 19352.82946605 .00020379 00000-0 19682-3 0 9999 2 43552 51.6366 135.9181 0005360 123.5077 236.6432 15.66429198 81674 UiTMSat 1 1 43589U 98067PD 19352.85197332 .00023135 00000-0 21558-3 0 9995 2 43589 51.6335 135.9608 0004764 134.5622 225.5764 15.67234221 77413 Maya 1 1 43590U 98067PE 19353.10032891 .00022802 00000-0 21240-3 0 9992 2 43590 51.6338 134.6266 0004868 135.1972 224.9418 15.67253027 77384 Bhutan 1 1 43591U 98067PF 19352.82881354 .00021622 00000-0 20125-3 0 9997 2 43591 51.6348 135.8553 0004983 135.0125 225.1276 15.67308706 77341 SiriusSat 1 1 43595U 98067PG 19353.11955333 .00020156 00000-0 19751-3 0 9997 2 43595 51.6337 137.0103 0002767 99.4250 260.7059 15.66082667 76536 SiriusSat 2 1 43596U 98067PH 19352.91382008 .00020253 00000-0 19970-3 0 9999 2 43596 51.6349 138.6929 0003227 96.3224 263.8139 15.65922260 76491 Tanusha-3 1 43597U 98067PJ 19353.09468753 .00031471 00000-0 26696-3 0 9999 2 43597 51.6328 133.0416 0002525 121.6946 238.4297 15.69366337 76586 SurfSat 1 43614U 18070B 19353.28899678 .00002231 00000-0 59142-4 0 9995 2 43614 93.0384 79.6133 0013902 325.7564 34.2792 15.38344146 70624 CP-7 DAVE 1 43615U 18070C 19353.30588421 .00002128 00000-0 56594-4 0 9993 2 43615 93.0386 79.6181 0013984 324.9928 35.0405 15.38236858 70625 ELFIN-B 1 43616U 18070D 19352.96161084 .00003483 00000-0 89614-4 0 9991 2 43616 93.0344 79.3828 0014674 329.3258 30.7137 15.39201248 70593 ELFIN-A 1 43617U 18070E 19352.94733076 .00003860 00000-0 98983-4 0 9994 2 43617 93.0399 79.7370 0013815 326.0361 34.0007 15.39314531 70598 STARS-Me Mother 1 43640U 98067PQ 19352.84858757 .00011391 00000-0 13603-3 0 9990 2 43640 51.6356 146.5109 0004915 72.1549 287.9980 15.61546083 68318 CubeBel 1 1 43666U 18083E 19353.76291087 .00000726 00000-0 39117-4 0 9996 2 43666 97.5059 16.8742 0013494 270.4433 178.9377 15.17898025 63203 Changshagaoxin 1 43669U 18083H 19353.76294518 .00000741 00000-0 40857-4 0 9991 2 43669 97.4929 15.6199 0009363 260.2971 99.7205 15.17025345 63137 Ten-Koh 1 43677U 18084G 19353.13421484 .00000211 00000-0 27542-4 0 9994 2 43677 97.8676 105.8624 0016902 40.8775 319.3707 14.90228094 61935 PO-101 1 43678U 18084H 19353.82026646 .00000225 00000-0 28139-4 0 9990 2 43678 97.8683 107.4724 0011198 59.4616 300.7719 14.91593888 62097 IRVINE 01 1 43693U 18088D 19353.74431029 .00002418 00000-0 10362-3 0 9991 2 43693 85.0357 196.5337 0016316 232.5383 127.4376 15.22084676 61358 QO-100 1 43700U 18090A 19353.30882623 .00000146 00000-0 00000 0 0 9995 2 43700 0.0019 29.2456 0001659 276.5732 278.7873 1.00268418 4137 Reaktor Hello World 1 43743U 18096AA 19353.74810031 .00000953 00000-0 38625-4 0 9995 2 43743 97.4421 63.3898 0019373 49.9492 102.9013 15.26991622 58818 MinXSS-2 1 43758U 18099A 19352.88726084 .00000701 00000-0 68296-4 0 9990 2 43758 097.7283 062.6071 0017138 077.9788 282.3353 14.95535389056811 AO-95 1 43770U 18099N 19353.11687723 -.00000095 00000-0 -34021-5 0 9995 2 43770 97.7280 62.4675 0016005 83.4780 276.8262 14.94874006 56825 RANGE-B 1 43772U 18099Q 19353.76004038 .00000567 00000-0 57008-4 0 9991 2 43772 97.7341 63.4179 0015584 70.2030 290.0869 14.95023489 56911 RANGE-A 1 43773U 18099R 19353.10673354 -.00000132 00000-0 -68193-5 0 9991 2 43773 97.7226 62.2299 0014971 71.9345 288.3505 14.94883200 56810 MOVE-II 1 43780U 18099Y 19353.44659511 .00000023 00000-0 73255-5 0 9997 2 43780 97.7275 62.8991 0014923 80.7909 279.4999 14.95226973 56860 SNUSat 2 1 43782U 18099AA 19353.78035818 -.00000147 00000-0 -80976-5 0 9991 2 43782 97.7275 63.2675 0014085 69.7448 290.5286 14.95150468 56925 SnugLite 1 43784U 18099AC 19353.15769028 .00000501 00000-0 50647-4 0 9994 2 43784 97.7243 62.5324 0016654 78.8496 281.4596 14.95241050 56845 ITASat 1 1 43786U 18099AE 19352.82131465 .00000559 00000-0 55959-4 0 9991 2 43786 97.7296 62.4648 0016748 78.9661 281.3443 14.95230915 56794 EAGLET 1 1 43790U 18099AJ 19353.12693724 .00000058 00000-0 10430-4 0 9990 2 43790 97.7282 62.9403 0014861 82.3876 277.9032 14.95603236 56547 ESEO 1 43792U 18099AL 19353.79654196 .00000034 00000-0 82731-5 0 9993 2 43792 97.7258 63.5038 0014661 77.5673 282.7187 14.95551918 56704 CSIM 1 43793U 18099AM 19353.15132149 .00000944 00000-0 89501-4 0 9994 2 43793 97.7240 62.7728 0014473 78.5060 281.7786 14.95869942 56584 Astrocast 0.1 1 43798U 18099AS 19352.87012777 .00000289 00000-0 31059-4 0 9998 2 43798 097.7272 062.7530 0013674 065.6341 294.6306 14.95791673056807 JO-97 1 43803U 18099AX 19353.85952743 .00000154 00000-0 19096-4 0 9998 2 43803 97.7251 63.3543 0016495 76.2999 284.0056 14.95381865 56941 Suomi 100 1 43804U 18099AY 19353.19020133 .00000031 00000-0 80052-5 0 9990 2 43804 97.7250 62.6895 0016579 78.3725 281.9356 14.95376185 56854 Al Farabi 2 1 43805U 18099AZ 19353.84619796 -.00000068 00000-0 -90318-6 0 9991 2 43805 97.7257 63.3767 0016633 76.2730 284.0341 14.95465800 56954 PWSat 2 1 43814U 18099BJ 19352.90812857 .00015706 00000-0 11109-2 0 9990 2 43814 097.7762 066.2066 0008028 109.3791 250.8273 15.04930198056350 CHOMPTT 1 43855U 18104G 19353.13730830 .00000917 00000-0 37470-4 0 9997 2 43855 85.0356 295.1266 0018840 7.8266 352.3262 15.22658888 55933 ISAT 1 43879U 18111D 19353.79228883 -.00000106 00000-0 -42948-5 0 9992 2 43879 97.7105 259.0289 0014162 124.7600 235.4957 14.96110626 51479 UWE-4 1 43880U 18111E 19352.79817684 -.00000062 00000-0 -33221-6 0 9992 2 43880 97.7113 258.2271 0013225 128.7932 231.4473 14.96346399 51335 Sparrow 1 43881U 18111F 19353.72326767 -.00000127 00000-0 -60466-5 0 9996 2 43881 97.7121 259.1835 0013461 124.0997 236.1503 14.96399606 51462 Lume 1 1 43908U 18111AJ 19353.78436983 .00001049 00000-0 44990-4 0 9999 2 43908 97.2788 253.8981 0023049 63.5005 296.8593 15.24671050 54495 FO-98 1 43933U 19003B 19353.74602628 .00000578 00000-0 28270-4 0 9994 2 43933 97.2583 45.1428 0018711 152.9152 347.4416 15.21861810 51047 FO-99 1 43937U 19003F 19353.77036001 .00000966 00000-0 42486-4 0 9993 2 43937 97.2535 45.9196 0025242 139.8787 315.1926 15.23958451 51119 Delphini 1 1 44030U 98067PW 19352.83477359 .00014063 00000-0 17376-3 0 9998 2 44030 51.6352 152.4297 0004738 119.8752 240.2713 15.60417950 50103 MYSat 1 1 44045U 18092F 19353.40950404 .00001495 00000-0 53291-4 0 9997 2 44045 51.6425 200.7274 0012174 33.2069 326.9664 15.35750603 47464 AstroCast 0.2 1 44083U 19018F 19353.69541934 .00000724 00000-0 35148-4 0 9998 2 44083 97.4465 51.9997 0015545 85.7243 274.5769 15.21563530 39895 AISTechSat 3 1 44103U 19018AB 19353.69659841 .00000647 00000-0 30549-4 0 9992 2 44103 97.4345 52.0657 0015254 100.4949 19.4889 15.22883633 39928 AISat 1 1 44104U 19018AC 19353.44229210 .00000778 00000-0 27495-4 0 9990 2 44104 97.4881 56.7767 0059844 134.2837 226.3336 15.30752834 40117 Raavana-1 1 44329U 98067QE 19353.48405401 .00009076 00000-0 14202-3 0 9993 2 44329 51.6387 159.0600 0006764 52.9293 307.2315 15.54536531 28827 Uguisu 1 44330U 98067QF 19353.16760800 .00009147 00000-0 14337-3 0 9995 2 44330 51.6389 160.6953 0006718 50.6938 309.4648 15.54480781 28750 NepaliSat-1 1 44331U 98067QG 19353.73709578 .00010824 00000-0 16770-3 0 9991 2 44331 51.6387 157.7504 0006818 55.1590 305.0041 15.54577072 28853 Prox-1 1 44339U 19036A 19352.80205094 .00000684 00000-0 11303-3 0 9999 2 44339 24.0011 174.6722 0011535 327.5630 32.4158 14.52774109 25687 OBJECT H 1 44346U 19036H 19353.71276994 .00624272 00000-0 72279-2 0 9998 2 44346 28.5183 122.7842 0279323 188.9863 170.5664 15.24804412 26654 OBJECT J 1 44347U 19036J 19353.55116183 .00056506 00000-0 82917-3 0 9994 2 44347 28.5298 121.5829 0348268 191.0436 168.2302 15.07018311 26659 OBJECT K 1 44348U 19036K 19353.52227630 .00014309 00000-0 22009-3 0 9993 2 44348 28.5124 127.0423 0380245 182.2808 177.6033 14.99244590 26593 Armadillo 1 44352U 19036P 19353.71362681 .00020052 00000-0 31144-3 0 9997 2 44352 28.5310 124.8941 0373496 185.4918 174.1497 15.00554582 26574 NO-104 1 44354U 19036R 19352.70083637 .00015991 00000-0 24353-3 0 9998 2 44354 028.5306 131.2296 0377594 174.7700 185.6988 15.00055798026475 NO-103 1 44355U 19036S 19353.71083055 .00034345 00000-0 51896-3 0 9991 2 44355 28.5320 122.8707 0367606 188.3960 171.0345 15.02477848 26637 Oculus-ASR 1 44356U 19036T 19352.67914126 .00060009 00000-0 79779-3 0 9994 2 44356 28.5246 123.1188 0342553 187.8105 171.7050 15.10250201 26553 CP9 1 44360U 19036X 19353.05061615 .00037949 00000-0 50290-3 0 9992 2 44360 28.5163 123.0282 0362902 188.4561 170.9775 15.06195656 26454 Move-IIb 1 44398U 19038N 19353.36794474 .00001267 00000-0 77212-4 0 9993 2 44398 97.5129 312.2375 0026461 34.1660 326.1267 15.11919800 25217 SONATE 1 44400U 19038Q 19353.43775808 .00000622 00000-0 39979-4 0 9997 2 44400 97.5150 312.3228 0026243 32.4069 327.8767 15.11775379 25220 BeeSat 9 1 44412U 19038AC 19353.41963194 .00000837 00000-0 52244-4 0 9993 2 44412 97.5143 312.3377 0023961 38.1611 322.1310 15.11993264 24912 JAISAT-1 1 44419U 19038F 19353.43152644 .00000796 00000-0 49240-4 0 9998 2 44419 97.5144 312.4773 0022823 37.9386 322.3447 15.12478641 25230 LightSail-2 1 44420U 19036AC 19352.88902605 .00003822 00000-0 83844-3 0 9996 2 44420 24.0120 173.4662 0023936 301.6030 58.2132 14.53924102 23849 Taurus 1 1 44530U 19059C 19353.77542043 -.00000129 00000-0 -23684-4 0 9994 2 44530 98.5812 68.0881 0014070 341.7189 18.3483 14.45290241 14247 ATL 1 1 44830U 19084G 19353.22781078 .00030903 00000-0 30180-3 0 9997 2 44830 96.9987 217.2986 0039197 207.9460 152.0794 15.65115846 2003 TRSI-Sat 1 44831U 19084H 19353.86690069 .00018606 00000-0 18398-3 0 9990 2 44831 96.9919 217.9463 0034695 203.9416 156.0319 15.65120419 2112 SMOG-P 1 44832U 19084J 19353.67428606 .00033051 00000-0 31969-3 0 9996 2 44832 96.9997 217.7463 0040249 203.7897 156.1440 15.65287258 2076 Duchifat 3 1 44854U 19089C 19353.71178915 .00000212 00000-0 23701-4 0 9994 2 44854 36.9682 86.3826 0008638 29.6597 330.4634 14.98931795 1164 OPS-SAT 1 44878U 19092F 19353.50057404 -.00000066 00000-0 00000 0 0 9990 2 44878 97.4619 174.9251 0012683 263.0821 96.8968 15.15154709 138 /EX
